INMARSAT 5-F3 1 40882U 15042A 21060.78438844 .00000042 00000-0 00000-0 0 9995 2 40882 0.0155 132.1484 0000236 178.7768 310.8110 1.00272092 20181 BREEZE-M R/B 1 40883U 15042B 21059.93157835 -.00000068 00000-0 00000-0 0 9998 2 40883 30.5761 306.2097 7863189 157.0880 280.1562 1.10222334 22179 BREEZE-M DEB [TANK] 1 40884U 15042C 21060.02201077 .00001071 00000-0 25329-3 0 9997 2 40884 50.7874 70.3955 5196572 301.6506 17.8404 5.27522114105955